EW3867 Weather Reports


time (UTC)temp
C
wind
direction
speed
KPH
gust
KPH
rain 1hr
cm
rain 24hr
cm
rain mn
cm
humidity
%
barometer
mb
20260901194048 23 227 1.6 1.6 0.00 0.10 0.00 46 1013.0
20260901193110 23 222 0.0 0.0 0.00 0.10 0.00 45 1013.2
20260901192048 23 221 0.0 0.0 0.00 0.10 0.00 46 1013.4
20260901191022 23 222 0.0 0.0 0.00 0.13 0.00 47 1013.6
20260901190024 23 222 1.6 8.0 0.00 0.23 0.00 46 1013.8
20260901183948 23 230 4.8 0.0 0.00 0.33 0.00 48 1014.0
20260901181755 22 0 0.0 0.0 0.00 0.36 0.00 45 1014.1
20260901175644 22 0 0.0 1.6 0.00 0.38 0.00 46 1014.4
20260901174624 22 0 0.0 0.0 0.00 0.43 0.00 48 1014.6
20260901173611 22 0 0.0 0.0 0.00 0.43 0.00 52 1014.6
20260901170309 21 13 0.0 0.0 0.00 0.43 0.00 53 1014.9
20260901165237 21 13 0.0 6.4 0.00 0.43 0.00 59 1014.9
20260901164243 21 9 0.0 3.2 0.00 0.43 0.00 55 1014.8
20260901163236 21 9 0.0 0.0 0.00 0.43 0.00 52 1014.8
20260901162220 21 9 0.0 1.6 0.00 0.43 0.00 53 1014.8
20260901161217 20 9 0.0 0.0 0.00 0.43 0.00 59 1014.7
20260901160214 20 5 0.0 0.0 0.00 0.43 0.00 59 1014.8
20260901155204 20 9 0.0 3.2 0.00 0.43 0.00 59 1014.7
20260901154220 19 9 0.0 0.0 0.00 0.43 0.00 58 1014.8
20260901153245 19 9 0.0 0.0 0.00 0.43 0.00 58 1014.9
20260901152250 19 9 0.0 0.0 0.00 0.43 0.00 58 1015.0
20260901151219 18 9 0.0 0.0 0.00 0.43 0.00 62 1015.0
20260901145046 17 9 0.0 0.0 0.00 0.43 0.00 69 1015.0
20260901144056 16 9 0.0 0.0 0.00 0.43 0.00 71 1015.1
20260901143030 15 9 0.0 0.0 0.00 0.43 0.00 73 1015.2
20260901142017 15 9 0.0 0.0 0.00 0.43 0.00 74 1015.3
20260901141003 14 5 0.0 0.0 0.00 0.43 0.00 77 1015.3
20260901133715 12 9 0.0 11.3 0.00 0.43 0.00 83 1015.2
20260901132737 11 9 0.0 6.4 0.00 0.43 0.00 86 1015.1
20260901131710 10 9 0.0 0.0 0.00 0.43 0.00 88 1015.1
20260901130659 10 9 0.0 0.0 0.00 0.43 0.00 88 1015.0
20260901124514 10 9 0.0 0.0 0.00 0.43 0.00 89 1014.7
20260901123539 10 9 0.0 0.0 0.00 0.43 0.00 89 1014.4
20260901122508 10 9 0.0 0.0 0.00 0.43 0.00 89 1014.3
20260901120306 10 9 0.0 0.0 0.00 0.43 0.00 90 1014.0
20260901115315 10 5 0.0 0.0 0.00 0.43 0.00 89 1013.9
20260901114253 10 9 0.0 0.0 0.00 0.43 0.00 89 1013.9
20260901112106 10 9 0.0 0.0 0.00 0.43 0.00 88 1013.7
20260901111100 10 9 0.0 0.0 0.00 0.43 0.00 87 1013.6
20260901110055 11 9 0.0 0.0 0.00 0.43 0.00 87 1013.6
20260901105026 11 9 0.0 0.0 0.00 0.43 0.00 86 1013.8
20260901103952 11 9 0.0 0.0 0.00 0.43 0.00 85 1013.7
20260901102937 11 9 0.0 0.0 0.00 0.43 0.00 85 1013.6
20260901101939 11 9 0.0 11.3 0.00 0.43 0.00 85 1013.5
20260901095814 11 9 0.0 0.0 0.00 0.43 0.00 86 1013.6
20260901094817 11 9 0.0 0.0 0.00 0.43 0.00 86 1013.6
20260901093806 11 9 0.0 0.0 0.00 0.43 0.00 86 1013.6
20260901092827 11 5 0.0 0.0 0.00 0.43 0.00 87 1013.7
20260901091821 11 9 0.0 0.0 0.00 0.43 0.00 86 1013.6
20260901090827 11 9 0.0 0.0 0.00 0.43 0.00 86 1013.6
20260901085816 11 5 0.0 0.0 0.00 0.43 0.00 86 1013.7
20260901084810 12 9 0.0 0.0 0.00 0.43 0.00 86 1013.8
20260901083740 12 5 0.0 0.0 0.00 0.43 0.00 86 1013.8
20260901082738 12 9 0.0 0.0 0.00 0.43 0.00 86 1013.7
20260901081733 12 5 0.0 0.0 0.00 0.43 0.00 85 1013.9
20260901080726 12 9 0.0 0.0 0.00 0.43 0.00 86 1013.9
20260901075742 12 9 0.0 6.4 0.00 0.48 0.00 86 1013.8
20260901074739 12 9 0.0 0.0 0.00 0.53 0.00 85 1014.0
20260901073757 12 9 0.0 0.0 0.00 0.53 0.00 86 1014.0
20260901072731 12 9 0.0 0.0 0.00 0.53 0.00 87 1014.0
20260901071750 12 9 0.0 0.0 0.00 0.53 0.00 86 1014.0
20260901070758 12 9 0.0 0.0 0.00 0.53 0.00 86 1013.9
20260901064702 12 9 0.0 4.8 0.00 0.53 0.00 86 1013.9
20260901063659 12 9 0.0 0.0 0.00 0.53 0.00 86 1013.9
20260901062710 12 9 0.0 0.0 0.00 0.53 0.00 85 1014.0
20260901061707 12 9 0.0 0.0 0.00 0.53 0.00 86 1013.9
20260901060729 12 9 0.0 0.0 0.00 0.53 0.00 86 1013.8
20260901055739 12 9 0.0 0.0 0.00 0.53 0.53 85 1013.7
20260901054731 12 9 6.4 0.0 0.00 0.53 0.53 86 1013.4
20260901053713 12 5 6.4 14.5 0.00 0.53 0.53 87 1013.1
20260901052700 12 355 0.0 1.6 0.00 0.53 0.53 87 1013.2
20260901051638 12 355 0.0 0.0 0.00 0.53 0.53 88 1013.6
20260901050605 12 355 0.0 11.3 0.00 0.53 0.53 87 1013.6
20260901045534 12 355 0.0 3.2 0.00 0.53 0.53 88 1013.5
20260901043346 13 355 0.0 0.0 0.00 0.53 0.53 87 1013.6
20260901042339 12 355 0.0 0.0 0.00 0.53 0.53 89 1013.6
20260901041340 13 355 0.0 11.3 0.00 0.53 0.53 88 1013.9
20260901040347 13 355 0.0 0.0 0.00 0.53 0.53 89 1013.5
20260901035410 13 355 0.0 0.0 0.00 0.53 0.53 89 1013.6
20260901034419 13 355 0.0 0.0 0.00 0.53 0.53 89 1013.4
20260901033433 13 355 0.0 0.0 0.00 0.53 0.53 89 1013.2
20260901032456 13 355 0.0 0.0 0.00 0.53 0.53 90 1013.3
20260901031505 13 355 0.0 0.0 0.00 0.53 0.53 90 1013.0
20260901030459 13 355 0.0 0.0 0.00 0.53 0.53 91 1012.8
20260901025509 13 355 0.0 0.0 0.00 0.53 0.53 91 1012.6
20260901024446 13 355 0.0 0.0 0.00 0.53 0.53 91 1012.6
20260901023439 13 355 0.0 0.0 0.00 0.53 0.53 91 1012.5
20260901022405 13 355 0.0 0.0 0.00 0.53 0.53 90 1012.3
20260901021425 14 355 0.0 0.0 0.00 0.53 0.53 89 1012.1
20260901020406 14 355 0.0 0.0 0.00 0.53 0.53 89 1012.0